[[{"header":{"parameterUnit":"m.s-1","parameterCategory":1,"la1":30.2991,"la2":30.254,"lo1":-89.0895,"lo2":-89.0444,"dy":0.0017,"dx":0.0017,"nx":28,"ny":28,"refTime":"2025-06-12T21:00:00:Z","depth":0,"parameterNumber":2,"parameterNumberName":"U-component_of_WINDS"},"data":[0,0,0,0,0,0,0,0,0,0,0,0,0,0,0,0,0,0,0,0,0,0,0,0,0,0,0,0,0,0,0,0,0,0,0,0,0,0,0,0,0,0,0,0,0,0,0,0,0,0,0,0,0,0,0,0,0,0,0.6648,0.6648,0,0.6611,0.6611,0.6611,0.657,0.657,0.6569,0.6568,0.6531,0.653,0.653,0,0,0,0,0,0,0,0,0,0,0,0,0,0.6682,0.6682,0.6648,0.6648,0.6647,0.6611,0.6611,0.661,0.657,0.657,0.6569,0.6568,0.6531,0.653,0.653,0,0,0,0,0,0,0,0,0,0,0,0,0,0.6659,0.6682,0.6648,0.6623,0.662,0.6612,0.6611,0.661,0.657,0.657,0.6569,0.6568,0.6531,0.653,0.6529,0.6543,0,0,0.6527,0.6527,0,0,0,0,0,0,0,0,0.666,0.6657,0.6627,0.6625,0.6622,0.6594,0.6609,0.6588,0.6571,0.6589,0.6568,0.6567,0.6553,0.655,0.6545,0.6541,0.6539,0.6527,0.6527,0.6527,0.6526,0,0,0,0,0,0,0,0.6662,0.6659,0.6634,0.6627,0.6624,0.6613,0.6609,0.6605,0.6576,0.6588,0.6585,0.6581,0.6551,0.6546,0.6544,0.6539,0.6527,0.6527,0.6526,0.6526,0.654,0.6541,0,0,0,0,0,0,0.6667,0.666,0.6635,0.6633,0.6639,0.6613,0.6608,0.6604,0.6576,0.6571,0.6582,0.6579,0.6547,0.6545,0.6542,0.6554,0.6527,0.6526,0.6525,0.6539,0.654,0.6541,0,0,0,0,0,0,0.6668,0.6666,0.6636,0.6646,0.6641,0.6613,0.6609,0.6604,0.6599,0.6572,0.6566,0.6582,0.6547,0.6543,0.6542,0.6552,0.6526,0.6525,0.6538,0.654,0.6541,0.6578,0,0,0,0,0,0,0.6669,0.6666,0.6671,0.6646,0.6641,0.6638,0.661,0.6604,0.6598,0.6594,0.657,0.6566,0.6546,0.6543,0.6541,0.655,0.6524,0.6537,0.6539,0.654,0.6576,0.658,0.6584,0,0,0,0,0,0.6671,0.6684,0.6672,0.6669,0.6647,0.6638,0.6635,0.6612,0.6599,0.6603,0.6585,0.6566,0.6551,0.6544,0.6541,0.655,0.6537,0.6538,0.654,0.6574,0.6579,0.6584,0,0,0,0,0,0,0.6712,0.668,0.6667,0.6672,0.6658,0.6632,0.6637,0.6619,0.6609,0.6606,0.6577,0.6572,0.6574,0.6562,0.6554,0.656,0.6541,0.6542,0.6567,0.6572,0.6577,0.6579,0.6524,0,0,0,0,0,0.6721,0.6717,0.669,0.6697,0.6691,0.6665,0.666,0.6644,0.6628,0.6622,0.6604,0.6589,0.6581,0.6576,0.6567,0.6574,0.6567,0.6578,0.6583,0.6586,0.6588,0.6588,0.6592,0.6547,0.6547,0.6547,0,0,0.6741,0.6723,0.6723,0.6705,0.6692,0.6688,0.666,0.6658,0.6653,0.6621,0.6619,0.6605,0.6587,0.6589,0.6589,0.6579,0.6598,0.6589,0.6592,0.6591,0.659,0.6594,0.6598,0.6548,0.6548,0.6548,0,0,0.6775,0.6762,0.6765,0.6753,0.6733,0.6715,0.6716,0.6692,0.6681,0.6678,0.6653,0.6648,0.6635,0.6622,0.6614,0.664,0.6621,0.6638,0.666,0.666,0.6663,0.6666,0.6674,0.6677,0.6639,0.6639,0.6639,0,0.6802,0.6795,0.6769,0.6767,0.6759,0.6729,0.6732,0.6721,0.67,0.6694,0.6683,0.6664,0.665,0.6647,0.6654,0.6649,0.6647,0.664,0.6665,0.6668,0.667,0.6677,0.668,0.6641,0.6641,0.6641,0.6641,0,0.6828,0.6823,0.6828,0.6807,0.68,0.68,0.6774,0.677,0.6753,0.6736,0.6732,0.6713,0.6699,0.6697,0.6681,0.6692,0.6686,0.667,0.6651,0.6677,0.6682,0.6685,0.6644,0.6643,0.6643,0.6642,0,0,0.6887,0.6851,0.6853,0.6842,0.6818,0.6813,0.6811,0.6796,0.6792,0.6778,0.6775,0.6763,0.6748,0.6739,0.6721,0.6721,0.6741,0.6705,0.6705,0.6711,0.6748,0.6759,0.6763,0.6728,0.6729,0.6729,0.6749,0,0.6915,0.691,0.6886,0.6888,0.6881,0.6852,0.685,0.6834,0.6818,0.681,0.6792,0.6783,0.6765,0.6758,0.6758,0.6739,0.6747,0.6737,0.6723,0.6723,0.6728,0.6766,0.6778,0.6798,0.6752,0.6752,0.6752,0,0.6947,0.6934,0.6935,0.6908,0.6905,0.6904,0.6887,0.688,0.6861,0.6849,0.6837,0.6817,0.6811,0.6794,0.6785,0.6778,0.6771,0.6761,0.6761,0.6758,0.6739,0.6763,0.6804,0.6807,0.6756,0.6756,0.6755,0,0.6988,0.6971,0.6968,0.696,0.693,0.6929,0.6916,0.6896,0.6888,0.6873,0.6867,0.6853,0.6844,0.6833,0.6808,0.6798,0.6802,0.6783,0.679,0.6791,0.6792,0.6792,0.6832,0.679,0.679,0.679,0.679,0,0.7021,0.7022,0.6986,0.6984,0.6984,0.6956,0.6956,0.694,0.6922,0.6916,0.689,0.6885,0.6853,0.6844,0.6825,0.6819,0.6816,0.6805,0.68,0.6807,0.6808,0.6802,0.6799,0.679,0.679,0.679,0.679,0,0.7066,0.7042,0.7037,0.7008,0.7001,0.7002,0.6976,0.6973,0.6954,0.6947,0.6943,0.6914,0.6902,0.6876,0.6857,0.6844,0.6842,0.6834,0.6849,0.6845,0.6854,0.6853,0.689,0.6892,0.685,0.6851,0.6851,0,0.7089,0.7089,0.7059,0.7053,0.7041,0.7032,0.7023,0.6995,0.6987,0.6964,0.6963,0.6948,0.6935,0.6916,0.6892,0.6877,0.6867,0.6881,0.6864,0.6871,0.6865,0.6865,0.6864,0.6884,0.6885,0.6885,0.6886,0,0.713,0.7117,0.7106,0.709,0.708,0.7066,0.7051,0.7047,0.7015,0.7007,0.6994,0.6983,0.6962,0.6948,0.6928,0.6914,0.6894,0.6891,0.6891,0.6898,0.6906,0.69,0.6857,0.689,0.689,0.6889,0.6889,0.6889,0.7163,0.7161,0.7139,0.7127,0.7112,0.7098,0.7092,0.7073,0.7061,0.7042,0.7026,0.7013,0.6992,0.6963,0.695,0.6939,0.693,0.6931,0.6931,0.6932,0.6934,0.6909,0.6936,0.6936,0.6935,0.6935,0.6935,0,0.7202,0.7186,0.7175,0.7153,0.7143,0.7125,0.7106,0.7099,0.7088,0.707,0.7057,0.704,0.7025,0.7,0.6982,0.6978,0.6968,0.6974,0.6974,0.697,0.6944,0.6945,0.6982,0.6982,0.6982,0.6982,0.6982,0.6982,0.722,0.7215,0.7199,0.7186,0.717,0.7157,0.7148,0.7134,0.7118,0.7101,0.7088,0.7072,0.705,0.703,0.7015,0.7008,0.7002,0.7011,0.7,0.6977,0.6972,0.6968,0.6968,0.701,0.701,0.7027,0.7027,0.7027]},{"header":{"parameterUnit":"m.s-1","parameterCategory":1,"la1":30.2991,"la2":30.254,"lo1":-89.0895,"lo2":-89.0444,"dy":0.0017,"dx":0.0017,"nx":28,"ny":28,"refTime":"2025-06-12T21:00:00:Z","depth":0,"parameterNumber":3,"parameterNumberName":"V-component_of_WINDS"},"data":[0,0,0,0,0,0,0,0,0,0,0,0,0,0,0,0,0,0,0,0,0,0,0,0,0,0,0,0,0,0,0,0,0,0,0,0,0,0,0,0,0,0,0,0,0,0,0,0,0,0,0,0,0,0,0,0,0,0,5.9615,5.9616,0,5.9737,5.9738,5.974,5.9689,5.9686,5.9683,5.968,5.9798,5.9803,5.9809,0,0,0,0,0,0,0,0,0,0,0,0,0,5.9329,5.9335,5.9615,5.9617,5.9618,5.9737,5.9738,5.974,5.9689,5.9686,5.9682,5.9679,5.9796,5.9803,5.981,0,0,0,0,0,0,0,0,0,0,0,0,0,5.9452,5.9337,5.9615,5.9607,5.9608,5.9736,5.9738,5.974,5.969,5.9686,5.9682,5.9677,5.9794,5.9802,5.9811,5.9951,0,0,5.9837,5.9841,0,0,0,0,0,0,0,0,5.9445,5.9463,5.9607,5.9608,5.9609,5.9693,5.968,5.9811,5.9691,5.9659,5.968,5.9675,5.9766,5.9777,5.9809,5.9957,5.9962,5.9838,5.9843,5.9847,5.985,0,0,0,0,0,0,0,5.9437,5.9457,5.9663,5.9609,5.961,5.9595,5.9608,5.9705,5.9735,5.9661,5.9658,5.9673,5.9766,5.9801,5.9811,5.9964,5.9838,5.9846,5.9851,5.9854,6.0228,6.0233,0,0,0,0,0,0,5.9429,5.9451,5.9659,5.9667,5.9515,5.9603,5.9618,5.9671,5.9734,5.9739,5.9677,5.9671,5.9788,5.9801,5.9815,5.9982,5.9847,5.9855,5.986,6.0224,6.0229,6.0234,0,0,0,0,0,0,5.9424,5.9449,5.9654,5.9558,5.9583,5.9613,5.9673,5.9675,5.971,5.9746,5.975,5.9708,5.9785,5.9803,5.9917,5.9985,5.9859,5.9867,6.0218,6.0225,6.0232,6.0317,0,0,0,0,0,0,5.9416,5.9447,5.9503,5.956,5.9588,5.9758,5.9677,5.9681,5.9726,5.9719,5.9776,5.9781,5.9783,5.9905,5.9926,5.9995,5.9874,6.0212,6.0221,6.023,6.0308,6.0326,6.0341,0,0,0,0,0,5.9406,5.9521,5.9506,5.9532,5.966,5.9762,5.9778,5.978,5.9732,5.9787,5.9809,5.9779,5.9974,5.9917,5.9941,6.0013,6.0208,6.0219,6.0229,6.0301,6.0323,6.0341,0,0,0,0,0,0,5.947,5.9529,5.9513,5.9651,5.9702,5.9753,5.9823,5.9803,5.9867,5.9857,5.9855,5.9868,5.9986,6.001,5.9946,6.015,6.0083,6.0099,6.013,6.0151,6.0167,6.0158,5.9881,0,0,0,0,0,5.9501,5.9582,5.9627,5.9744,5.9771,5.9793,5.9837,5.9834,5.9886,5.9907,5.9937,5.9987,6.0058,6.0106,6.0174,6.0311,6.0321,6.0372,6.0389,6.0402,6.0416,6.0486,6.0509,6.0269,6.0269,6.0269,0,0,5.9564,5.9606,5.9657,5.9759,5.9798,5.9878,5.9811,5.99,5.9958,5.9919,6.003,6.0054,6.0108,6.0233,6.029,6.0258,6.0484,6.0416,6.0426,6.0432,6.05,6.0522,6.0542,6.0276,6.0275,6.0274,0,0,5.9721,5.9763,5.9864,5.9904,5.9965,5.9978,6.0002,6.0056,6.0071,6.0182,6.0153,6.0221,6.0346,6.0385,6.0421,6.059,6.0563,6.0612,6.0698,6.0767,6.0786,6.0802,6.086,6.0881,6.0625,6.0625,6.0625,0,5.9792,5.9915,5.9917,6.0008,6.0052,6.0021,6.0121,6.016,6.0239,6.0268,6.0231,6.0385,6.042,6.0553,6.0593,6.0625,6.0649,6.0605,6.0783,6.08,6.0815,6.087,6.0892,6.063,6.063,6.0629,6.0629,0,5.9998,6.0083,6.0157,6.0236,6.0287,6.0382,6.0395,6.0447,6.0438,6.0454,6.0565,6.0605,6.068,6.0711,6.0704,6.0842,6.082,6.0783,6.0716,6.0844,6.0895,6.0916,6.0638,6.0636,6.0635,6.0633,0,0,6.02,6.0278,6.0304,6.0338,6.0402,6.0466,6.0557,6.0632,6.0675,6.073,6.0804,6.091,6.0875,6.0916,6.0912,6.0973,6.1101,6.0929,6.093,6.0958,6.1252,6.1278,6.1303,6.1084,6.1088,6.1091,6.1247,0,6.036,6.0524,6.0527,6.0676,6.0752,6.0723,6.0802,6.0848,6.0864,6.0929,6.0945,6.102,6.097,6.0994,6.1053,6.1073,6.1159,6.1062,6.115,6.1153,6.1136,6.133,6.1359,6.1504,6.1267,6.127,6.1273,0,6.057,6.0632,6.079,6.0839,6.0871,6.0943,6.101,6.1074,6.1123,6.113,6.1175,6.1161,6.125,6.1181,6.1302,6.1235,6.1271,6.1285,6.1291,6.1298,6.122,6.1341,6.1551,6.1572,6.1305,6.1302,6.13,0,6.0699,6.0822,6.0932,6.0962,6.1023,6.1073,6.1101,6.1146,6.119,6.1247,6.1275,6.1341,6.1377,6.1427,6.143,6.138,6.1551,6.1482,6.1557,6.1557,6.1594,6.1592,6.1811,6.162,6.1619,6.1619,6.1618,0,6.0877,6.0974,6.099,6.1057,6.1163,6.1164,6.1267,6.129,6.133,6.1398,6.1376,6.1439,6.144,6.1504,6.1506,6.1604,6.1621,6.1627,6.1626,6.1629,6.1628,6.1651,6.1641,6.1625,6.1623,6.1622,6.1621,0,6.104,6.1055,6.1172,6.122,6.1234,6.131,6.1349,6.1411,6.1424,6.1511,6.1531,6.1551,6.1625,6.1633,6.1719,6.172,6.1838,6.1827,6.1822,6.182,6.1893,6.1886,6.2135,6.2166,6.1956,6.1958,6.1959,0,6.1152,6.1226,6.1282,6.1327,6.1357,6.143,6.1475,6.1476,6.1523,6.1583,6.1637,6.1709,6.1767,6.1885,6.1906,6.197,6.196,6.2042,6.1969,6.1968,6.1958,6.1954,6.196,6.2056,6.2059,6.2061,6.2062,0,6.1349,6.1352,6.1419,6.1488,6.1542,6.1595,6.1645,6.1683,6.169,6.1743,6.1819,6.1864,6.1951,6.2022,6.2085,6.2109,6.2086,6.2085,6.2105,6.2108,6.2101,6.2104,6.1859,6.2079,6.2078,6.2076,6.2075,6.2075,6.1489,6.1552,6.16,6.1674,6.1712,6.1759,6.1819,6.184,6.1904,6.1977,6.1973,6.2056,6.2099,6.2182,6.2211,6.2273,6.2245,6.2275,6.2283,6.229,6.2296,6.2092,6.2285,6.2284,6.2284,6.2283,6.2283,0,6.1682,6.1712,6.178,6.1851,6.1908,6.1884,6.1937,6.1985,6.206,6.2103,6.2161,6.2246,6.2314,6.2339,6.2404,6.2449,6.244,6.2466,6.2462,6.2467,6.2319,6.2294,6.2472,6.2472,6.2472,6.2472,6.2472,6.2472,6.179,6.1895,6.1903,6.2025,6.2053,6.2136,6.2168,6.2209,6.2244,6.2341,6.2398,6.2415,6.245,6.2517,6.2576,6.2582,6.2606,6.2636,6.2637,6.2497,6.2478,6.246,6.2436,6.2642,6.2642,6.278,6.2781,6.2782]}]]